Notices

What's New in latest Release from April 7th, 2021:

- Updated Glossary, including Speed of Maximum Gust, and Total Hourly Precipitation

- Updated national and regional climate services offices contacts and prices information

- Addition of station inventory lists for 1981-2010, 1971-2000, and 1961-1990 Normals.

If you haven't already, please take our survey and provide feedback about our website: https://eccc.sondage-survey.ca/f/LanguageSelection.aspx?s=442ca660-fcf1-47c0-95a9-59707d6fd709

Hourly Data Report for March 03, 2017

TORONTO CITY
ONTARIO

43°40'00.000" N
79°24'00.000" W
112.50 m
6158355
71508
XTO

Download Data

Hourly Data (March 2017)
Hourly Data Report for March 3, 2017
TIME
LST
Temp Definition
°C
Dew Point Definition
°C
Rel Hum Definition
%
Precip. Amount Definition
mm

Wind Dir Definition
10's deg

Wind Spd Definition
km/h
Visibility Definition
km
Stn Press Definition
kPa
Hmdx Definition


Wind Chill Definition


Weather Definition


00:00 -5.6 -11.5 63 0.0 LegendMM LegendMM   100.85     LegendNANA
01:00 -5.4 -11.0 64 0.0 LegendMM LegendMM   100.87     LegendNANA
02:00 -5.6 -10.9 67 0.0 LegendMM LegendMM   100.87     LegendNANA
03:00 -5.4 -10.6 67 0.0 LegendMM LegendMM   100.82     LegendNANA
04:00 -4.9 -10.0 67 0.0 LegendMM LegendMM   100.80     LegendNANA
05:00 -4.9 -9.9 68 0.0 LegendMM LegendMM   100.80     LegendNANA
06:00 -4.8 -9.5 70 0.0 LegendMM LegendMM   100.81     LegendNANA
07:00 -5.0 -7.6 82 0.0 LegendMM LegendMM   100.84     LegendNANA
08:00 -4.4 -9.3 68 0.0 LegendMM LegendMM   100.93     LegendNANA
09:00 -5.2 -12.6 56 0.0 LegendMM LegendMM   101.05     LegendNANA
10:00 -4.8 -16.2 41 0.0 LegendMM LegendMM   101.15     LegendNANA
11:00 -5.4 -18.9 34 0.0 LegendMM LegendMM   101.28     LegendNANA
12:00 -5.8 -16.1 44 0.0 LegendMM LegendMM   101.38     LegendNANA
13:00 -5.6 -13.8 53 0.0 LegendMM LegendMM   101.44     LegendNANA
14:00 -6.7 -12.3 64 0.0 LegendMM LegendMM   101.52     LegendNANA
15:00 -6.5 -13.4 58 0.0 LegendMM LegendMM   101.57     LegendNANA
16:00 -5.9 -18.2 37 0.0 LegendMM LegendMM   101.63     LegendNANA
17:00 -6.6 -18.7 38 0.0 LegendMM LegendMM   101.72     LegendNANA
18:00 -7.3 -20.2 35 0.0 LegendMM LegendMM   101.79     LegendNANA
19:00 -7.3 -17.8 43 0.0 LegendMM LegendMM   101.84     LegendNANA
20:00 -7.7 -16.5 50 0.0 LegendMM LegendMM   101.86     LegendNANA
21:00 -8.0 -15.2 56 0.0 LegendMM LegendMM   101.90     LegendNANA
22:00 -8.0 -14.5 59 0.0 LegendMM LegendMM   101.90     LegendNANA
23:00 -8.0 -13.8 63 0.0 LegendMM LegendMM   101.88     LegendNANA

Notes on Data Quality.

Legend

  • E = Estimated
  • M = Missing
  • NA = Not Available*
  • [empty] = Indicates an unobserved value
Date modified: